This is the latest recevied weather packets stored in our database for station/object EA7OC-10. If no packets are shown the sender has not sent any weather packets the latest 10 day(s).
| Time | Temp. | Humidity | Pressure | Rain* | Wind** | Luminosity | Snow |
|---|---|---|---|---|---|---|---|
| 1778059816 | 31.67° C | 27% | 1013.2 hPa | - | - | - | - |
| 1778058916 | 31.67° C | 27% | 1013.2 hPa | - | - | - | - |
| 1778058016 | 31.67° C | 27% | 1013.3 hPa | - | - | - | - |
| 1778057116 | 31.67° C | 28% | 1013.3 hPa | - | - | - | - |
| 1778056216 | 30.56° C | 28% | 1013.3 hPa | - | - | - | - |
| 1778055315 | 30.56° C | 28% | 1013.2 hPa | - | - | - | - |
| 1778054415 | 29.44° C | 28% | 1013.1 hPa | - | - | - | - |
| 1778053515 | 28.89° C | 28% | 1013.2 hPa | - | - | - | - |
| 1778052615 | 28.33° C | 29% | 1013.2 hPa | - | - | - | - |
| 1778051715 | 26.67° C | 31% | 1013.2 hPa | - | - | - | - |
| 1778050815 | 22.78° C | 31% | 1013.2 hPa | - | - | - | - |
| 1778049915 | 18.33° C | 29% | 1013.2 hPa | - | - | - | - |
| 1778049015 | 18.89° C | 28% | 1013.2 hPa | - | - | - | - |
| 1778048115 | 18.89° C | 30% | 1013 hPa | - | - | - | - |
| 1778047214 | 16.11° C | 30% | 1012.9 hPa | - | - | - | - |
| 1778046314 | 13.89° C | 29% | 1012.8 hPa | - | - | - | - |
| 1778045414 | 11.11° C | 28% | 1012.8 hPa | - | - | - | - |
| 1778044514 | 11.11° C | 27% | 1012.7 hPa | - | - | - | - |
| 1778043611 | 11.67° C | 27% | 1012.8 hPa | - | - | - | - |
| 1778042711 | 11.67° C | 27% | 1012.7 hPa | - | - | - | - |
| 1778041811 | 11.67° C | 27% | 1012.6 hPa | - | - | - | - |
| 1778040907 | 12.22° C | 27% | 1012.7 hPa | - | - | - | - |
| 1778040004 | 12.22° C | 27% | 1012.8 hPa | - | - | - | - |
| 1778039104 | 12.22° C | 27% | 1012.8 hPa | - | - | - | - |
| 1778038204 | 12.22° C | 27% | 1013 hPa | - | - | - | - |
* Rain since midnight (hover to see other rain measurements)
** Current wind speed in m/s (hover to see current wind gust speed)